Showing default

CBERS 4A, 44883

Orbit data source: Space-Track

CBERS 4A, 44883 is a CN and BR payload satellite in SSO that was launched on Fri, 20 Dec 2019 UTC via a CHANG ZHENG 4B launch vehicle from the Taiyaun Space Center, China (TSC). Payload-class satellites include a variety of spacecraft equipped with specific instruments for various scientific and technological missions. These include communications satellites like Starlink; space stations such as the ISS; scientific satellites like the Hubble; Earth observation satellites from companies like Planet Labs, Umbra, and HawkEye 360; GPS; miniature CubeSats for education and research; and military/defense satellites.

Loading next visibility...
Identifier
44883, 2019-093E
Orbit
SSO
Country
Flag of CNCN / CHBZ
Flag of BRBR / CHBZ
Related business
Manufacturer
CAST/INPE
Mission
Operational Civil Imaging
Bus & Motor
ZY, AOCS 20N
Mass
1,980 kg wet, ~1,900 kg dry
Launch date (UTC)
2019-12-20 (6 years ago)
Launch vehicle
CHANG ZHENG 4B
Launch site
Taiyaun Space Center, China (TSC)
Object type
Payload
Rocket body
Debris
Shape & HBR
Box + 1 Pan, Unknown HBR
Radar Cross Section
22.196 m², Large (>1 m²)

Expand to show TLE details & history
Last TLE update: 5 days ago

TLE from 5 days ago
0 CBERS 4A
1 44883U 19093E   26155.25788385  .00000624  00000-0  85840-4 0  9995
2 44883  97.7498 222.9076 0001044 162.5760 197.5489 14.81613576349165
Epoch: 2026-06-04T06:11Z
TLE epoch observation values (Epoch: 2026-06-04T06:11:21.164Z)
Latitude
-0.00006°
Longitude
-122.63531°
Altitude
627.961 km
Speed
7.544 km/s
True Right ascension
14h 51m 37s
True Declination
0° 00' 00"
Sunlit
Object was in full shadow at epoch
Visualization orbit readout
Latitude
Unknown
Longitude
Unknown
Altitude
Unknown
Speed
Unknown
Apparent Right ascension
Unknown
Apparent Declination
Unknown
Sunlit
N/A
Visualization observer readout
Local Sidereal Time
01:51:45
Azimuth
Unknown
Elevation
Unknown
Doppler factor
Unknown
Orbital elements
Apogee altitude
621.998 km
Perigee altitude
620.537 km
Semi-major axis
6,999.405 km
Eccentricity
0.0001
Inclination
97.7498°
RAAN
222.9076°
Arg. of periapsis
162.576°
True anomaly
197.54529°
Mean anomaly
197.5489°
Eccentric anomaly
197.5471°
Mean motion
3.70639 °/min
Orbital period
97.13 mins
BSTAR
0.00008584
Loading maneuver chart data...
Computing Atmospheric mass density...
Loading historical data...
Loading historical data...
Loading historical data...
Loading historical data...
Loading historical data...
Loading historical data...
Loading historical data...

Documentation

Showing up to 5 results
|